[[{"header":{"parameterUnit":"m.s-1","parameterCategory":2,"la1":30.2991,"la2":30.254,"lo1":-89.0895,"lo2":-89.0444,"dy":0.0017,"dx":0.0017,"nx":28,"ny":28,"refTime":"2025-08-15T21:00:00:Z","depth":"0","parameterNumber":2,"parameterNumberName":"U-component_of_CURRENTS"},"data":[0,0,0,0,0,0,0,0,0,0,0,0,0,0,0,0,0,0,0,0,0,0,0,0,0,0,0,0,0,0,0,0,0,0,0,0,0,0,0,0,0,0,0,0,0,0,0,0,0,0,0,0,0,0,0,0,0,0,0.37,0.37,0,0.3641,0.364,0.3638,0.3623,0.3624,0.3625,0.3626,0.353,0.3527,0.3523,0,0,0,0,0,0,0,0,0,0,0,0,0,0.3733,0.3732,0.37,0.37,0.37,0.3641,0.364,0.3638,0.3623,0.3624,0.3625,0.3627,0.3532,0.3527,0.3523,0,0,0,0,0,0,0,0,0,0,0,0,0,0.3694,0.3732,0.37,0.3691,0.369,0.3641,0.3639,0.3638,0.3623,0.3624,0.3626,0.3627,0.3533,0.3528,0.3523,0.3458,0,0,0.3506,0.3504,0,0,0,0,0,0,0,0,0.3696,0.3692,0.3693,0.3692,0.3691,0.3648,0.3616,0.3578,0.3622,0.364,0.3626,0.3628,0.357,0.3562,0.3537,0.3453,0.3449,0.3506,0.3503,0.35,0.3499,0,0,0,0,0,0,0,0.3699,0.3694,0.3669,0.3693,0.3692,0.3668,0.3663,0.3608,0.359,0.3639,0.3639,0.3644,0.3568,0.3542,0.3534,0.3448,0.3506,0.3501,0.3498,0.3496,0.3368,0.3368,0,0,0,0,0,0,0.3723,0.3697,0.3671,0.3668,0.3706,0.3666,0.3661,0.3654,0.3592,0.3586,0.3643,0.3644,0.355,0.3541,0.3531,0.349,0.35,0.3495,0.3492,0.3368,0.3368,0.3368,0,0,0,0,0,0,0.3724,0.3721,0.3674,0.3688,0.3681,0.3666,0.3656,0.3652,0.3635,0.3597,0.359,0.3633,0.3551,0.3538,0.3492,0.3485,0.3493,0.3488,0.3368,0.3368,0.3368,0.3382,0,0,0,0,0,0,0.3724,0.3721,0.3709,0.3689,0.3682,0.3644,0.3655,0.365,0.3639,0.3639,0.3585,0.3578,0.3551,0.35,0.3487,0.3478,0.3484,0.3368,0.3368,0.3368,0.3382,0.3382,0.3382,0,0,0,0,0,0.3726,0.3698,0.3708,0.3705,0.367,0.3643,0.3635,0.3625,0.3637,0.3617,0.3593,0.358,0.3489,0.3495,0.3479,0.3469,0.3369,0.3368,0.3368,0.3381,0.3382,0.3382,0,0,0,0,0,0,0.3687,0.3695,0.3705,0.3676,0.3667,0.3644,0.3624,0.3625,0.3587,0.359,0.3561,0.355,0.3515,0.3485,0.3493,0.3434,0.3432,0.3428,0.3448,0.3448,0.3448,0.3466,0.3479,0,0,0,0,0,0.3681,0.3673,0.3673,0.365,0.3649,0.3639,0.3625,0.3622,0.3598,0.3584,0.3551,0.3521,0.3496,0.3469,0.3436,0.3383,0.3406,0.3372,0.3373,0.3373,0.3378,0.34,0.3403,0.3366,0.3366,0.3366,0,0,0.3661,0.3664,0.3658,0.3644,0.3636,0.3612,0.3632,0.3612,0.3593,0.3577,0.3527,0.3517,0.3485,0.3444,0.3425,0.3417,0.3402,0.3373,0.3373,0.3378,0.34,0.3403,0.3407,0.3366,0.3366,0.3366,0,0,0.362,0.3622,0.3606,0.3596,0.3595,0.3588,0.3588,0.3569,0.3563,0.352,0.3522,0.3512,0.344,0.3432,0.3418,0.3396,0.3411,0.3385,0.3385,0.3405,0.3409,0.3412,0.3478,0.3487,0.3375,0.3375,0.3375,0,0.3602,0.3575,0.3592,0.3571,0.356,0.358,0.3552,0.354,0.3506,0.3508,0.3507,0.3464,0.3439,0.342,0.3421,0.3397,0.3427,0.3385,0.3408,0.3411,0.3414,0.3481,0.3491,0.3376,0.3376,0.3376,0.3376,0,0.3547,0.3526,0.3513,0.3501,0.3488,0.3465,0.3471,0.3459,0.3464,0.3464,0.3457,0.3437,0.3421,0.3414,0.3405,0.3416,0.344,0.3416,0.3411,0.3419,0.3489,0.3499,0.3377,0.3376,0.3376,0.3376,0,0,0.3509,0.3484,0.3478,0.3464,0.3452,0.3435,0.3419,0.3416,0.3424,0.3409,0.3419,0.3395,0.342,0.3408,0.3409,0.3423,0.3484,0.3429,0.3429,0.3503,0.357,0.3558,0.3569,0.3464,0.3465,0.3465,0.3622,0,0.3465,0.341,0.3414,0.3363,0.3335,0.3357,0.3344,0.3349,0.3366,0.3379,0.3404,0.3409,0.3407,0.3417,0.3432,0.3472,0.3506,0.3447,0.3543,0.3547,0.3541,0.3577,0.334,0.3455,0.3632,0.3634,0.3635,0,0.3405,0.338,0.3322,0.3306,0.3301,0.3279,0.3288,0.3282,0.3324,0.3348,0.3379,0.3407,0.3447,0.3439,0.3523,0.3487,0.3534,0.3566,0.3571,0.3559,0.3552,0.3467,0.3467,0.332,0.3651,0.365,0.3648,0,0.3354,0.3314,0.3269,0.3256,0.324,0.3235,0.3239,0.3269,0.329,0.3344,0.3381,0.3424,0.3466,0.3514,0.3594,0.3561,0.3703,0.366,0.3702,0.3704,0.352,0.3503,0.3389,0.3723,0.3722,0.3722,0.3722,0,0.3292,0.3255,0.3243,0.3213,0.3188,0.3195,0.3196,0.322,0.3273,0.3301,0.3369,0.3408,0.3484,0.3572,0.3623,0.3715,0.3731,0.3725,0.3738,0.3522,0.3505,0.3382,0.3344,0.3728,0.3727,0.3725,0.3724,0,0.3227,0.3216,0.3169,0.3156,0.3157,0.3138,0.3172,0.3182,0.3248,0.3293,0.3319,0.3422,0.353,0.3634,0.3739,0.376,0.372,0.3868,0.3642,0.3624,0.3488,0.3461,0.3356,0.3275,0.3925,0.3926,0.3926,0,0.3188,0.3153,0.3129,0.3112,0.3104,0.3096,0.31,0.3158,0.3181,0.3289,0.331,0.3442,0.3529,0.3721,0.3757,0.3876,0.3743,0.3725,0.3599,0.3464,0.3443,0.3346,0.3277,0.3382,0.3377,0.3374,0.3372,0,0.312,0.3112,0.3074,0.3048,0.3038,0.3041,0.3055,0.3079,0.315,0.3219,0.3311,0.3398,0.3548,0.3547,0.3699,0.3719,0.3491,0.3663,0.354,0.3033,0.2896,0.2828,0.3347,0.3342,0.3345,0.3347,0.3349,0.335,0.3079,0.304,0.3003,0.2969,0.2971,0.2984,0.2976,0.3015,0.3073,0.3126,0.3246,0.3287,0.3325,0.3489,0.3516,0.329,0.3361,0.3118,0.3116,0.3047,0.2878,0.3378,0.3371,0.3374,0.3377,0.3379,0.3381,0,0.3028,0.298,0.2936,0.2903,0.289,0.2918,0.2939,0.2923,0.2966,0.2994,0.3074,0.3027,0.2998,0.2972,0.2821,0.2725,0.2618,0.2612,0.2349,0.2329,0.2759,0.2638,0.2447,0.2447,0.2447,0.2447,0.2447,0.2447,0.2998,0.2922,0.2883,0.2828,0.2821,0.2793,0.2799,0.2786,0.2779,0.2688,0.2581,0.2615,0.2567,0.2441,0.2226,0.2184,0.2035,0.1924,0.2024,0.223,0.2273,0.2315,0.2186,0.1903,0.1902,0.1414,0.141,0.1407]},{"header":{"parameterUnit":"m.s-1","parameterCategory":2,"la1":30.2991,"la2":30.254,"lo1":-89.0895,"lo2":-89.0444,"dy":0.0017,"dx":0.0017,"nx":28,"ny":28,"refTime":"2025-08-15T21:00:00:Z","depth":"0","parameterNumber":3,"parameterNumberName":"V-component_of_CURRENTS"},"data":[0,0,0,0,0,0,0,0,0,0,0,0,0,0,0,0,0,0,0,0,0,0,0,0,0,0,0,0,0,0,0,0,0,0,0,0,0,0,0,0,0,0,0,0,0,0,0,0,0,0,0,0,0,0,0,0,0,0,0.0177,0.0177,0,0.0145,0.0145,0.0145,0.0116,0.0115,0.0115,0.0114,-0.0002,-0.0004,-0.0007,0,0,0,0,0,0,0,0,0,0,0,0,0,0.0241,0.0239,0.0177,0.0177,0.0176,0.0145,0.0145,0.0144,0.0116,0.0115,0.0115,0.0114,-0.0001,-0.0004,-0.0007,0,0,0,0,0,0,0,0,0,0,0,0,0,0.0212,0.0239,0.0177,0.0157,0.0155,0.0145,0.0145,0.0144,0.0116,0.0115,0.0115,0.0114,0.0,-0.0004,-0.0007,-0.0019,0,0,-0.002,-0.0022,0,0,0,0,0,0,0,0,0.0214,0.021,0.0161,0.0159,0.0156,0.0133,0.0125,0.0085,0.0116,0.0132,0.0114,0.0114,0.0035,0.0029,0.0027,-0.0025,-0.003,-0.002,-0.0023,-0.0024,-0.0025,0,0,0,0,0,0,0,0.0216,0.0211,0.0166,0.016,0.0158,0.0159,0.0154,0.0118,0.0087,0.013,0.0128,0.0123,0.0034,0.0031,0.0023,-0.0031,-0.002,-0.0024,-0.0026,-0.0028,-0.0111,-0.0111,0,0,0,0,0,0,0.0217,0.0213,0.0167,0.0164,0.0183,0.0158,0.0153,0.0142,0.0089,0.0081,0.0124,0.0122,0.0038,0.0028,0.0019,-0.0002,-0.0024,-0.0028,-0.003,-0.0112,-0.0111,-0.0111,0,0,0,0,0,0,0.0218,0.0213,0.0168,0.0188,0.0182,0.0158,0.0146,0.0142,0.0137,0.0085,0.0075,0.0123,0.0037,0.0025,-0.0002,-0.0007,-0.003,-0.0034,-0.0112,-0.0112,-0.0111,-0.0043,0,0,0,0,0,0,0.022,0.0213,0.0211,0.0187,0.0181,0.0165,0.0146,0.0141,0.0135,0.0132,0.0081,0.007,0.0035,0.0005,-0.0006,-0.0013,-0.0037,-0.0112,-0.0112,-0.0111,-0.0045,-0.004,-0.0036,0,0,0,0,0,0.0222,0.0219,0.021,0.0205,0.0176,0.0165,0.0162,0.0144,0.0136,0.0137,0.011,0.0071,-0.0001,0.0002,-0.001,-0.0019,-0.0112,-0.0112,-0.0111,-0.0047,-0.0041,-0.0036,0,0,0,0,0,0,0.0248,0.0214,0.0205,0.0192,0.0182,0.016,0.016,0.0149,0.0131,0.0125,0.008,0.0067,0.0041,0.0004,0.0009,-0.0042,-0.0066,-0.0068,-0.0013,-0.0008,-0.0003,0.0007,-0.004,0,0,0,0,0,0.0252,0.0239,0.0214,0.0208,0.0201,0.0183,0.0178,0.0165,0.0145,0.0137,0.0104,0.0066,0.0034,0.001,-0.0023,-0.005,-0.0078,-0.0066,-0.0061,-0.0057,-0.0057,-0.0102,-0.0101,-0.011,-0.011,-0.011,0,0,0.0262,0.0242,0.0236,0.0213,0.0202,0.0202,0.0179,0.0171,0.0172,0.0124,0.0116,0.0084,0.0033,0.0009,-0.0008,-0.0025,-0.0063,-0.0056,-0.0052,-0.0055,-0.0101,-0.0101,-0.01,-0.011,-0.011,-0.011,0,0,0.0281,0.0257,0.0256,0.0248,0.0231,0.0218,0.0218,0.0198,0.0188,0.0178,0.0145,0.0116,0.0067,0.0033,0.0008,0.0017,-0.0031,-0.0001,0.0023,-0.002,-0.002,-0.002,-0.0026,-0.0027,-0.0005,-0.0005,-0.0005,0,0.0294,0.0287,0.0258,0.026,0.0258,0.0228,0.0238,0.0224,0.0201,0.0193,0.0181,0.012,0.0079,0.0044,0.0049,0.0026,0.0006,0.0008,-0.0013,-0.0014,-0.0016,-0.0022,-0.0025,-0.0002,-0.0002,-0.0003,-0.0003,0,0.0313,0.0312,0.0313,0.0302,0.0299,0.0299,0.0277,0.0271,0.0255,0.0238,0.021,0.0163,0.0124,0.0104,0.0078,0.0046,0.0039,0.0005,-0.0024,-0.001,-0.0018,-0.0022,0.0003,0.0002,0.0001,-0.0,0,0,0.0324,0.0326,0.0325,0.0336,0.032,0.032,0.0318,0.0306,0.0306,0.0273,0.027,0.0214,0.0186,0.0156,0.0114,0.0073,0.0057,0.0039,0.0035,0.0041,-0.0012,0.0061,0.0064,0.0017,0.0016,0.0015,-0.0003,0,0.0347,0.0369,0.0359,0.0383,0.0392,0.0371,0.0377,0.0361,0.034,0.0329,0.0271,0.025,0.0204,0.019,0.0142,0.0081,0.0046,0.0067,-0.0033,-0.0035,0.0033,0.0061,0.0092,0.0085,-0.0007,-0.0007,-0.0008,0,0.0362,0.0375,0.0407,0.0427,0.0429,0.044,0.0439,0.0438,0.0407,0.0391,0.0352,0.0313,0.0262,0.0217,0.0117,0.0133,0.0067,0.0015,0.0012,0.0051,0.003,0.0048,0.0081,-0.0015,-0.0014,-0.0013,-0.0013,0,0.0381,0.0405,0.0435,0.044,0.0457,0.0469,0.0473,0.0456,0.0462,0.0429,0.043,0.0359,0.0337,0.0237,0.0158,0.0125,0.0061,-0.0005,-0.0001,0.0004,-0.0003,0.0004,-0.0071,-0.0086,-0.0086,-0.0086,-0.0086,0,0.0403,0.0427,0.0449,0.0465,0.0504,0.0499,0.053,0.0521,0.0515,0.0526,0.0464,0.0465,0.0336,0.0292,0.0188,0.0121,0.0085,0.0019,0.0004,0.0027,0.0036,-0.0076,-0.0138,-0.0086,-0.0086,-0.0086,-0.0086,0,0.0424,0.0438,0.0475,0.0503,0.0517,0.0543,0.0579,0.0595,0.0583,0.0596,0.0593,0.0548,0.051,0.0415,0.0282,0.0185,0.0064,0.0074,0.0143,0.0137,0.0039,-0.002,-0.0081,-0.0101,0.0054,0.0056,0.0057,0,0.0442,0.0459,0.0505,0.0536,0.0554,0.0593,0.0622,0.0627,0.0645,0.0651,0.0662,0.065,0.0679,0.0563,0.0409,0.0291,0.0158,0.0192,0.0122,0.0059,-0.0021,-0.0054,-0.0071,0.0139,0.0141,0.0143,0.0144,0,0.0468,0.048,0.0512,0.0573,0.0616,0.0664,0.0702,0.0735,0.0739,0.0782,0.0824,0.0863,0.0786,0.0715,0.0577,0.0454,0.0157,0.0222,0.0109,0.0017,0.0018,-0.0016,0.0148,0.0159,0.0157,0.0156,0.0155,0.0155,0.0488,0.0511,0.0548,0.0607,0.0664,0.0725,0.0772,0.0838,0.0914,0.1022,0.1006,0.1144,0.0969,0.0815,0.0631,0.0306,0.0289,0.0174,0.0103,0.0073,0.0069,0.0307,0.0332,0.0331,0.0331,0.0331,0.033,0,0.0502,0.0523,0.0578,0.0647,0.071,0.0736,0.0817,0.0891,0.1016,0.1207,0.132,0.1365,0.117,0.0878,0.0435,0.021,0.0103,0.0077,-0.0013,-0.0031,0.013,0.015,0.0195,0.0195,0.0196,0.0196,0.0196,0.0196,0.0513,0.0546,0.0565,0.066,0.0719,0.08,0.0852,0.1012,0.1176,0.1469,0.1632,0.174,0.1466,0.0666,0.0142,0.0026,-0.0142,-0.0142,-0.0225,-0.0178,-0.0176,-0.0175,-0.0173,-0.0195,-0.0196,-0.0352,-0.0354,-0.0355]}],[{"header":{"parameterUnit":"m.s-1","parameterCategory":2,"la1":30.2991,"la2":30.254,"lo1":-89.0895,"lo2":-89.0444,"dy":0.0017,"dx":0.0017,"nx":28,"ny":28,"refTime":"2025-08-15T21:00:00:Z","depth":"2","parameterNumber":2,"parameterNumberName":"U-component_of_CURRENTS"},"data":[0,0,0,0,0,0,0,0,0,0,0,0,0,0,0,0,0,0,0,0,0,0,0,0,0,0,0,0,0,0,0,0,0,0,0,0,0,0,0,0,0,0,0,0,0,0,0,0,0,0,0,0,0,0,0,0,0,0,0.2766,0.2768,0,0.2924,0.2926,0.2928,0.2947,0.2946,0.2944,0.2942,0.3026,0.303,0.3033,0,0,0,0,0,0,0,0,0,0,0,0,0,0.2652,0.2653,0.2766,0.2768,0.277,0.2924,0.2926,0.2928,0.2948,0.2946,0.2944,0.2942,0.3025,0.3029,0.3034,0,0,0,0,0,0,0,0,0,0,0,0,0,0.2746,0.2653,0.2766,0.2797,0.2801,0.2923,0.2926,0.2929,0.2948,0.2946,0.2943,0.2941,0.3023,0.3029,0.3034,0.312,0,0,0.3052,0.3054,0,0,0,0,0,0,0,0,0.274,0.275,0.279,0.2795,0.28,0.2912,0.2916,0.2989,0.2949,0.2894,0.2942,0.294,0.2982,0.2991,0.3029,0.3124,0.3128,0.3052,0.3056,0.3058,0.306,0,0,0,0,0,0,0,0.2733,0.2744,0.283,0.2793,0.2798,0.2861,0.287,0.2931,0.295,0.2899,0.29,0.2916,0.2984,0.3024,0.3031,0.3129,0.3052,0.3057,0.3061,0.3063,0.3266,0.3268,0,0,0,0,0,0,0.2705,0.2737,0.2825,0.2835,0.2761,0.2864,0.2875,0.288,0.2951,0.296,0.2918,0.2916,0.3016,0.3025,0.3034,0.3108,0.3058,0.3063,0.3067,0.3264,0.3267,0.3269,0,0,0,0,0,0,0.2701,0.2711,0.2819,0.2789,0.2807,0.2867,0.2874,0.2884,0.2952,0.2966,0.2973,0.2977,0.3014,0.3026,0.31,0.3112,0.3066,0.3071,0.3262,0.3265,0.3268,0.3275,0,0,0,0,0,0,0.2697,0.2708,0.2738,0.2787,0.2807,0.2915,0.2877,0.2889,0.2963,0.2963,0.3019,0.3022,0.3013,0.3092,0.3106,0.3119,0.3076,0.3259,0.3263,0.3267,0.3273,0.3278,0.3283,0,0,0,0,0,0.2693,0.2719,0.2738,0.2751,0.2833,0.2918,0.2937,0.2972,0.2968,0.302,0.3039,0.3022,0.3124,0.31,0.3115,0.3129,0.3258,0.3262,0.3266,0.327,0.3277,0.3283,0,0,0,0,0,0,0.2686,0.2725,0.2746,0.2785,0.2863,0.2921,0.2978,0.3005,0.307,0.3069,0.3069,0.3077,0.3143,0.3154,0.3126,0.32,0.3181,0.3189,0.3179,0.3186,0.3191,0.3164,0.308,0,0,0,0,0,0.27,0.2728,0.2791,0.2833,0.2874,0.2942,0.2992,0.302,0.3068,0.3097,0.3122,0.3147,0.3177,0.3194,0.3235,0.3295,0.3302,0.331,0.3315,0.3319,0.331,0.3361,0.3369,0.3283,0.3283,0.3283,0,0,0.2697,0.2737,0.2747,0.2836,0.2898,0.2955,0.2967,0.3054,0.3083,0.3097,0.3154,0.3189,0.3205,0.3251,0.328,0.3257,0.3347,0.3325,0.3328,0.3316,0.3366,0.3374,0.3381,0.3286,0.3286,0.3285,0,0,0.2723,0.2761,0.2805,0.287,0.2975,0.3006,0.3038,0.3121,0.3146,0.3216,0.3215,0.3262,0.3318,0.3319,0.3324,0.3397,0.3387,0.341,0.34,0.3449,0.3456,0.3462,0.3469,0.3476,0.3395,0.3395,0.3395,0,0.2714,0.2787,0.284,0.2911,0.2953,0.3024,0.3081,0.3124,0.3212,0.323,0.3229,0.3314,0.3337,0.3368,0.3372,0.3405,0.342,0.3367,0.3453,0.3459,0.3465,0.3471,0.3478,0.3396,0.3396,0.3396,0.3395,0,0.2786,0.2848,0.2886,0.297,0.3027,0.3098,0.3146,0.32,0.3226,0.3254,0.3319,0.3359,0.3393,0.3411,0.3404,0.3456,0.3449,0.3465,0.3427,0.3474,0.3478,0.3485,0.3397,0.3397,0.3396,0.3396,0,0,0.2707,0.2891,0.2904,0.2952,0.3063,0.31,0.3152,0.3212,0.3225,0.3301,0.3324,0.3378,0.3407,0.3416,0.3437,0.3466,0.3516,0.3473,0.3475,0.3461,0.3599,0.3346,0.3329,0.355,0.3552,0.3553,0.3579,0,0.2741,0.2879,0.295,0.303,0.309,0.3145,0.3169,0.3222,0.326,0.33,0.3347,0.3386,0.3404,0.3423,0.3462,0.351,0.3537,0.3505,0.3572,0.3573,0.3327,0.333,0.3141,0.3126,0.3586,0.3588,0.3588,0,0.2774,0.286,0.2974,0.3051,0.3076,0.3111,0.315,0.3186,0.3247,0.3275,0.3334,0.3379,0.3435,0.3449,0.354,0.352,0.3558,0.3589,0.3591,0.3352,0.3331,0.316,0.3122,0.36,0.3599,0.3598,0.3598,0,0.2709,0.2846,0.2934,0.2972,0.308,0.3101,0.3127,0.3182,0.3199,0.3268,0.3291,0.3376,0.3408,0.3491,0.3545,0.3556,0.3631,0.366,0.347,0.3453,0.3298,0.3261,0.3731,0.3731,0.3731,0.3731,0.3731,0,0.2707,0.2759,0.291,0.2955,0.2986,0.3057,0.3076,0.3113,0.3168,0.3181,0.3275,0.329,0.3423,0.3479,0.3546,0.3492,0.3636,0.3446,0.3435,0.329,0.3254,0.3676,0.367,0.3732,0.3732,0.3732,0.3732,0,0.2645,0.2766,0.2842,0.2955,0.2976,0.2989,0.3039,0.3046,0.3102,0.3128,0.3151,0.3234,0.3258,0.3362,0.3469,0.3436,0.3457,0.3417,0.3197,0.3154,0.3251,0.3245,0.3192,0.3183,0.3175,0.3169,0.3163,0,0.2646,0.2695,0.282,0.2848,0.2906,0.2936,0.2949,0.3007,0.3012,0.3072,0.307,0.3108,0.3055,0.307,0.3075,0.3085,0.3262,0.289,0.2849,0.3196,0.3194,0.32,0.3204,0.2679,0.267,0.2663,0.2658,0,0.2607,0.2663,0.2734,0.2785,0.2818,0.2818,0.2839,0.2808,0.2861,0.2831,0.2746,0.2701,0.2729,0.2586,0.2604,0.2617,0.2858,0.2728,0.3202,0.2794,0.2701,0.2702,0.2726,0.2593,0.26,0.2604,0.2608,0.261,0.2558,0.2586,0.2671,0.2664,0.271,0.2631,0.2516,0.2534,0.2421,0.2324,0.2406,0.2281,0.2331,0.217,0.2142,0.2179,0.2359,0.2328,0.2358,0.2394,0.2278,0.2171,0.1943,0.1946,0.1948,0.195,0.1952,0,0.2455,0.2494,0.2519,0.2491,0.2417,0.2495,0.2384,0.224,0.2005,0.2042,0.1912,0.171,0.1631,0.1759,0.1689,0.1657,0.1751,0.1627,0.1774,0.1836,0.1892,0.1758,0.1282,0.128,0.1278,0.1276,0,0,0.2412,0.2385,0.2353,0.216,0.2141,0.1942,0.1802,0.1672,0.1627,0.1423,0.1372,0.1498,0.1625,0.1391,0.138,0.1322,0.1576,0.1283,0.1821,0.2052,0.2105,0.2291,0.215,0,0,0,0,0]},{"header":{"parameterUnit":"m.s-1","parameterCategory":2,"la1":30.2991,"la2":30.254,"lo1":-89.0895,"lo2":-89.0444,"dy":0.0017,"dx":0.0017,"nx":28,"ny":28,"refTime":"2025-08-15T21:00:00:Z","depth":"2","parameterNumber":3,"parameterNumberName":"V-component_of_CURRENTS"},"data":[0,0,0,0,0,0,0,0,0,0,0,0,0,0,0,0,0,0,0,0,0,0,0,0,0,0,0,0,0,0,0,0,0,0,0,0,0,0,0,0,0,0,0,0,0,0,0,0,0,0,0,0,0,0,0,0,0,0,0.0381,0.0381,0,0.0365,0.0365,0.0365,0.0347,0.0346,0.0346,0.0345,0.0275,0.0274,0.0273,0,0,0,0,0,0,0,0,0,0,0,0,0,0.0386,0.0386,0.0381,0.0381,0.038,0.0365,0.0365,0.0365,0.0347,0.0346,0.0345,0.0345,0.0276,0.0274,0.0273,0,0,0,0,0,0,0,0,0,0,0,0,0,0.038,0.0386,0.0381,0.0368,0.0366,0.0365,0.0365,0.0365,0.0347,0.0346,0.0345,0.0345,0.0276,0.0274,0.0272,0.0274,0,0,0.0266,0.0265,0,0,0,0,0,0,0,0,0.0381,0.038,0.037,0.0368,0.0367,0.0355,0.0341,0.0331,0.0347,0.0357,0.0345,0.0344,0.0296,0.0292,0.0295,0.0271,0.0268,0.0266,0.0264,0.0264,0.0263,0,0,0,0,0,0,0,0.0381,0.0381,0.0377,0.0369,0.0367,0.0358,0.0357,0.0339,0.0331,0.0356,0.0354,0.0348,0.0295,0.0297,0.0293,0.0267,0.0266,0.0264,0.0263,0.0262,0.027,0.0272,0,0,0,0,0,0,0.038,0.0382,0.0377,0.0376,0.0369,0.0359,0.0358,0.0361,0.0333,0.0327,0.0349,0.0348,0.0301,0.0296,0.029,0.0317,0.0264,0.0262,0.026,0.0269,0.027,0.0272,0,0,0,0,0,0,0.038,0.038,0.0378,0.0376,0.0375,0.0359,0.0364,0.0361,0.0359,0.0328,0.0322,0.0349,0.03,0.0293,0.0288,0.0312,0.0261,0.0259,0.0267,0.0269,0.0271,0.0352,0,0,0,0,0,0,0.0381,0.0381,0.0384,0.0376,0.0375,0.0383,0.0364,0.0361,0.0356,0.0354,0.0326,0.0319,0.0299,0.0291,0.0286,0.0309,0.0257,0.0265,0.0268,0.0271,0.0347,0.0356,0.0364,0,0,0,0,0,0.0381,0.0389,0.0385,0.0384,0.038,0.0384,0.0383,0.037,0.0357,0.0364,0.0351,0.0319,0.0305,0.0291,0.0284,0.0307,0.0264,0.0267,0.027,0.0343,0.0355,0.0364,0,0,0,0,0,0,0.0398,0.0388,0.0383,0.0389,0.0388,0.038,0.0381,0.0372,0.0368,0.0363,0.0333,0.0327,0.0334,0.031,0.0295,0.0319,0.0281,0.0283,0.0339,0.0349,0.0358,0.0373,0.0255,0,0,0,0,0,0.0402,0.0403,0.0397,0.0402,0.0403,0.0392,0.0391,0.0385,0.0377,0.0375,0.036,0.0347,0.0345,0.0337,0.033,0.0336,0.0313,0.0348,0.0357,0.0364,0.0374,0.0368,0.0377,0.0283,0.0283,0.0283,0,0,0.0409,0.0404,0.0404,0.0405,0.0402,0.0419,0.0391,0.0393,0.0412,0.0367,0.0388,0.0374,0.0354,0.0371,0.0372,0.0351,0.0379,0.0368,0.0375,0.038,0.0373,0.0382,0.039,0.0285,0.0285,0.0284,0,0,0.0427,0.0421,0.0429,0.0435,0.0432,0.0432,0.0434,0.0433,0.0438,0.0452,0.0434,0.0439,0.0425,0.043,0.0426,0.0475,0.0427,0.0468,0.0519,0.0514,0.0522,0.0528,0.0509,0.0513,0.0469,0.047,0.047,0,0.0436,0.045,0.0434,0.045,0.0461,0.0443,0.0468,0.0475,0.0476,0.049,0.0468,0.0483,0.046,0.0493,0.0512,0.0495,0.0475,0.048,0.0525,0.0531,0.0536,0.0515,0.0519,0.0474,0.0473,0.0473,0.0473,0,0.0467,0.0479,0.0486,0.0504,0.0517,0.0533,0.0542,0.056,0.0558,0.0565,0.0594,0.0577,0.0585,0.0582,0.0558,0.0593,0.0561,0.0538,0.0498,0.0551,0.0525,0.0527,0.048,0.0478,0.0477,0.0476,0,0,0.0486,0.0504,0.0507,0.0529,0.0548,0.0565,0.0604,0.0638,0.067,0.0671,0.0717,0.0715,0.0701,0.0696,0.0673,0.0668,0.0682,0.0619,0.0617,0.0599,0.0659,0.0546,0.0537,0.0661,0.0662,0.0663,0.0626,0,0.0517,0.0556,0.056,0.0612,0.064,0.0649,0.0691,0.0719,0.0736,0.0776,0.0768,0.0793,0.0746,0.0751,0.0744,0.0703,0.0691,0.0693,0.0612,0.061,0.0502,0.0537,0.053,0.0488,0.0627,0.0628,0.0628,0,0.0551,0.0574,0.0622,0.0675,0.0689,0.0718,0.0785,0.0819,0.0865,0.0879,0.0901,0.0891,0.0902,0.0846,0.0804,0.0804,0.074,0.0698,0.0695,0.0563,0.0501,0.0459,0.0486,0.0631,0.063,0.063,0.063,0,0.0578,0.0623,0.0662,0.068,0.0734,0.0764,0.0795,0.0847,0.0892,0.0941,0.0977,0.0979,0.0984,0.0924,0.0838,0.0819,0.078,0.074,0.0579,0.057,0.0534,0.052,0.0704,0.0705,0.0705,0.0705,0.0705,0,0.0622,0.0654,0.0674,0.07,0.0762,0.0788,0.0861,0.0896,0.0958,0.1032,0.1024,0.108,0.1001,0.0972,0.0878,0.0737,0.0807,0.0593,0.0556,0.056,0.0548,0.0647,0.0641,0.0703,0.0704,0.0704,0.0704,0,0.0655,0.0665,0.0712,0.0757,0.0775,0.0818,0.0896,0.096,0.1001,0.1099,0.1119,0.1152,0.1102,0.1008,0.091,0.0774,0.0662,0.0592,0.059,0.0551,0.0442,0.0441,0.04,0.0395,0.0392,0.0389,0.0386,0,0.0683,0.0702,0.0742,0.0777,0.0797,0.0859,0.0919,0.0977,0.1055,0.1154,0.1219,0.1196,0.1187,0.0988,0.0779,0.0575,0.0603,0.0406,0.0351,0.0444,0.0413,0.0417,0.0421,0.0347,0.0344,0.0342,0.0341,0,0.0729,0.0722,0.0754,0.0822,0.0878,0.0956,0.1042,0.1113,0.1204,0.1262,0.135,0.1336,0.1139,0.0922,0.0616,0.0483,0.0431,0.0346,0.0482,0.0402,0.0385,0.0357,0.0365,0.0322,0.0323,0.0325,0.0326,0.0327,0.075,0.0768,0.08,0.0883,0.0945,0.1058,0.113,0.1226,0.1329,0.1417,0.1418,0.136,0.1127,0.0693,0.0477,0.0243,0.0252,0.0158,0.017,0.0183,0.016,0.0135,0.0021,0.0021,0.0021,0.0022,0.0022,0,0.0781,0.0808,0.0873,0.0967,0.105,0.108,0.122,0.1284,0.1393,0.1434,0.144,0.1181,0.0913,0.068,0.0287,0.0034,0.0069,-0.0018,0.0094,0.0111,0.0128,0.0108,-0.0049,-0.0049,-0.0049,-0.005,0,0,0.0798,0.0847,0.089,0.1043,0.1111,0.123,0.1303,0.1371,0.141,0.1411,0.1351,0.125,0.0948,0.0655,0.036,0.016,0.0194,0.0119,0.019,0.0372,0.0392,0.0232,0.0218,0,0,0,0,0]}],[{"header":{"parameterUnit":"m.s-1","parameterCategory":2,"la1":30.2991,"la2":30.254,"lo1":-89.0895,"lo2":-89.0444,"dy":0.0017,"dx":0.0017,"nx":28,"ny":28,"refTime":"2025-08-15T21:00:00:Z","depth":"4","parameterNumber":2,"parameterNumberName":"U-component_of_CURRENTS"},"data":[0,0,0,0,0,0,0,0,0,0,0,0,0,0,0,0,0,0,0,0,0,0,0,0,0,0,0,0,0,0,0,0,0,0,0,0,0,0,0,0,0,0,0,0,0,0,0,0,0,0,0,0,0,0,0,0,0,0,0.0533,0.0532,0,0.0524,0.0525,0.0525,0.0535,0.0535,0.0535,0.0535,0.0542,0.0542,0.0543,0,0,0,0,0,0,0,0,0,0,0,0,0,0.054,0.054,0.0533,0.0532,0.0532,0.0524,0.0525,0.0525,0.0535,0.0535,0.0535,0.0535,0.0542,0.0542,0.0543,0,0,0,0,0,0,0,0,0,0,0,0,0,0.0539,0.054,0.0533,0.0532,0.0532,0.0524,0.0525,0.0525,0.0535,0.0535,0.0535,0.0535,0.0542,0.0542,0.0543,0.0547,0,0,0.0544,0.0544,0,0,0,0,0,0,0,0,0.0539,0.054,0.0533,0.0532,0.0532,0.0527,0.0529,0.0532,0.0535,0.0539,0.0535,0.0535,0.0535,0.0536,0.0541,0.0547,0.0548,0.0544,0.0544,0.0544,0.0544,0,0,0,0,0,0,0,0.0539,0.054,0.0535,0.0532,0.0532,0.0526,0.0527,0.053,0.0542,0.0539,0.0538,0.053,0.0536,0.0541,0.0542,0.0548,0.0544,0.0544,0.0544,0.0544,0.0646,0.0648,0,0,0,0,0,0,0.0532,0.054,0.0535,0.0534,0.053,0.0526,0.0526,0.0532,0.0542,0.0541,0.053,0.053,0.0541,0.0541,0.0542,0.0603,0.0544,0.0545,0.0545,0.0643,0.0646,0.0649,0,0,0,0,0,0,0.0532,0.0532,0.0535,0.0532,0.0531,0.0525,0.0532,0.0532,0.0548,0.0534,0.0535,0.0545,0.054,0.0541,0.0566,0.0601,0.0545,0.0545,0.064,0.0644,0.0648,0.0689,0,0,0,0,0,0,0.0533,0.0533,0.0552,0.0532,0.0531,0.0542,0.0531,0.0532,0.0539,0.054,0.0547,0.0547,0.054,0.0566,0.0566,0.06,0.0545,0.0637,0.0642,0.0647,0.0684,0.0693,0.0701,0,0,0,0,0,0.0533,0.0531,0.0553,0.0553,0.0552,0.0542,0.0543,0.054,0.054,0.0554,0.0564,0.0547,0.0596,0.0567,0.0568,0.0602,0.0635,0.0641,0.0646,0.068,0.0691,0.0701,0,0,0,0,0,0,0.0532,0.0532,0.0555,0.0554,0.0563,0.0542,0.0548,0.0549,0.0568,0.0575,0.0565,0.0567,0.0606,0.0604,0.0572,0.0651,0.0619,0.0625,0.0645,0.0655,0.0663,0.0682,0.0546,0,0,0,0,0,0.0547,0.0552,0.0557,0.0559,0.0568,0.0569,0.057,0.0573,0.0574,0.0582,0.0603,0.0621,0.0629,0.0639,0.0657,0.0688,0.0681,0.0719,0.0728,0.0734,0.0754,0.0768,0.0778,0.0667,0.0667,0.0667,0,0,0.0541,0.0544,0.0547,0.0561,0.057,0.0587,0.0571,0.0576,0.0606,0.058,0.0647,0.0651,0.0645,0.0687,0.0706,0.0688,0.0763,0.0741,0.0747,0.0763,0.0775,0.0785,0.0794,0.0671,0.067,0.067,0,0,0.0526,0.0549,0.0558,0.0573,0.0591,0.06,0.0606,0.0627,0.0659,0.0708,0.07,0.0723,0.0762,0.0761,0.0758,0.0824,0.0806,0.0845,0.0898,0.0911,0.092,0.0927,0.0921,0.0927,0.0849,0.0849,0.0849,0,0.054,0.0544,0.0557,0.0575,0.0588,0.061,0.063,0.0664,0.07,0.0739,0.0743,0.0803,0.0794,0.0814,0.0847,0.084,0.0847,0.0849,0.0919,0.0927,0.0933,0.0925,0.0932,0.0852,0.0851,0.0851,0.0851,0,0.0524,0.0551,0.0552,0.0597,0.0618,0.0632,0.0679,0.0732,0.0778,0.0821,0.0889,0.0886,0.0922,0.0922,0.0903,0.0954,0.0942,0.0922,0.0884,0.0947,0.0934,0.094,0.0855,0.0854,0.0854,0.0853,0,0,0.051,0.0544,0.0547,0.0584,0.0634,0.0647,0.0715,0.0784,0.0837,0.0909,0.0967,0.0999,0.1026,0.1026,0.1007,0.1018,0.1057,0.1007,0.1007,0.0985,0.1088,0.1013,0.1011,0.1056,0.1058,0.1059,0.1054,0,0.0513,0.0539,0.0557,0.0608,0.064,0.069,0.076,0.0832,0.0894,0.097,0.0997,0.1059,0.1057,0.1075,0.1089,0.1062,0.108,0.1061,0.1047,0.1046,0.0957,0.1018,0.1064,0.1058,0.106,0.1061,0.1061,0,0.0505,0.0527,0.0567,0.0645,0.0667,0.0713,0.0813,0.0879,0.0984,0.104,0.1103,0.1135,0.1175,0.1155,0.1172,0.1167,0.1155,0.1128,0.1126,0.105,0.0983,0.0989,0.1072,0.1071,0.107,0.107,0.1069,0,0.0485,0.0539,0.0573,0.0595,0.0686,0.0738,0.0807,0.0917,0.0983,0.1096,0.1141,0.1203,0.1237,0.1237,0.1209,0.1211,0.1196,0.1179,0.1097,0.109,0.1136,0.1129,0.1206,0.1206,0.1207,0.1207,0.1207,0,0.0481,0.0513,0.0577,0.0597,0.067,0.0754,0.084,0.0924,0.103,0.1107,0.1192,0.1224,0.1271,0.1264,0.1229,0.1176,0.1221,0.1125,0.1095,0.1153,0.1148,0.1139,0.1131,0.1206,0.1206,0.1206,0.1206,0,0.0463,0.0496,0.0541,0.0629,0.0664,0.0728,0.0845,0.0918,0.1034,0.1113,0.1163,0.1265,0.1287,0.1275,0.1258,0.1201,0.1144,0.1112,0.1167,0.1136,0.1027,0.1022,0.1045,0.1042,0.104,0.1038,0.1037,0,0.0453,0.0475,0.0541,0.0574,0.062,0.071,0.0788,0.0915,0.0974,0.1115,0.1145,0.1228,0.1272,0.1176,0.1181,0.1116,0.1097,0.1064,0.1074,0.1048,0.1017,0.1015,0.1013,0.1033,0.1033,0.1032,0.1032,0,0.0439,0.0464,0.0498,0.0553,0.0624,0.0669,0.0773,0.08,0.0952,0.1051,0.1114,0.1136,0.1152,0.114,0.1102,0.1046,0.1081,0.1042,0.1047,0.1056,0.1035,0.1005,0.1005,0.1025,0.1026,0.1026,0.1027,0,0.0428,0.0437,0.0478,0.0534,0.059,0.0615,0.0668,0.0749,0.0818,0.0983,0.0991,0.1064,0.1148,0.1102,0.1045,0.1008,0.1005,0.0961,0.097,0.0978,0.0956,0.0919,0.0864,0,0,0,0,0,0.0389,0.0402,0.046,0.0492,0.0543,0.0572,0.0658,0.0718,0.0837,0.0869,0.0932,0.0948,0.0955,0.0978,0.0925,0.0993,0.0981,0.0925,0.0929,0.0985,0.0993,0.0972,0,0,0,0,0,0,0.037,0.0398,0.044,0.0446,0.0463,0.0507,0.055,0.064,0.0646,0.0777,0.0778,0.0886,0.0887,0.0974,0.0907,0.0911,0.0891,0.0971,0.0968,0.098,0.0987,0.0994,0.0975,0,0,0,0,0]},{"header":{"parameterUnit":"m.s-1","parameterCategory":2,"la1":30.2991,"la2":30.254,"lo1":-89.0895,"lo2":-89.0444,"dy":0.0017,"dx":0.0017,"nx":28,"ny":28,"refTime":"2025-08-15T21:00:00:Z","depth":"4","parameterNumber":3,"parameterNumberName":"V-component_of_CURRENTS"},"data":[0,0,0,0,0,0,0,0,0,0,0,0,0,0,0,0,0,0,0,0,0,0,0,0,0,0,0,0,0,0,0,0,0,0,0,0,0,0,0,0,0,0,0,0,0,0,0,0,0,0,0,0,0,0,0,0,0,0,0.0276,0.0276,0,0.0259,0.0259,0.0258,0.0262,0.0263,0.0263,0.0264,0.0229,0.0228,0.0227,0,0,0,0,0,0,0,0,0,0,0,0,0,0.0277,0.0277,0.0276,0.0276,0.0277,0.0259,0.0259,0.0258,0.0262,0.0263,0.0264,0.0264,0.023,0.0228,0.0226,0,0,0,0,0,0,0,0,0,0,0,0,0,0.0268,0.0277,0.0276,0.0278,0.0278,0.0259,0.0259,0.0258,0.0262,0.0263,0.0264,0.0265,0.023,0.0228,0.0226,0.0196,0,0,0.022,0.0219,0,0,0,0,0,0,0,0,0.0268,0.0267,0.0278,0.0278,0.0278,0.0266,0.0246,0.0237,0.0262,0.0266,0.0264,0.0265,0.0241,0.0238,0.0229,0.0194,0.0193,0.0219,0.0218,0.0217,0.0217,0,0,0,0,0,0,0,0.0269,0.0268,0.0267,0.0278,0.0278,0.0268,0.0267,0.0244,0.0246,0.0265,0.0266,0.0268,0.0241,0.0232,0.0229,0.0192,0.0219,0.0218,0.0216,0.0215,0.0131,0.013,0,0,0,0,0,0,0.0277,0.0269,0.0268,0.0267,0.0278,0.0267,0.0267,0.0267,0.0247,0.0246,0.0267,0.0268,0.0235,0.0231,0.0228,0.0207,0.0217,0.0215,0.0214,0.0132,0.0131,0.013,0,0,0,0,0,0,0.0277,0.0277,0.0268,0.0269,0.0268,0.0267,0.0267,0.0266,0.0268,0.0249,0.0247,0.0272,0.0235,0.0231,0.0206,0.0205,0.0214,0.0212,0.0133,0.0132,0.0131,0.0154,0,0,0,0,0,0,0.0277,0.0277,0.0285,0.027,0.0268,0.0265,0.0266,0.0265,0.0269,0.027,0.0252,0.0249,0.0236,0.0209,0.0204,0.0202,0.021,0.0135,0.0133,0.0131,0.0155,0.0154,0.0153,0,0,0,0,0,0.0277,0.0283,0.0285,0.0286,0.0277,0.0266,0.0264,0.0264,0.0268,0.0269,0.0249,0.025,0.0194,0.0206,0.02,0.0198,0.0135,0.0133,0.0131,0.0155,0.0154,0.0153,0,0,0,0,0,0,0.0287,0.0284,0.0286,0.0291,0.0284,0.0268,0.0273,0.0268,0.0253,0.0257,0.0237,0.0232,0.021,0.0194,0.0208,0.0166,0.0165,0.0162,0.0186,0.0184,0.0184,0.0194,0.0209,0,0,0,0,0,0.0293,0.0295,0.0289,0.0292,0.0294,0.0284,0.0282,0.028,0.0264,0.026,0.0248,0.0225,0.0193,0.0183,0.0159,0.0135,0.0113,0.0128,0.0127,0.0127,0.0129,0.0086,0.0082,0.0123,0.0123,0.0123,0,0,0.0297,0.0295,0.0298,0.0294,0.0292,0.0294,0.0285,0.0285,0.0284,0.0256,0.0255,0.0225,0.0185,0.0159,0.0148,0.0149,0.0102,0.0124,0.0124,0.0126,0.0083,0.0079,0.0076,0.0122,0.0122,0.0122,0,0,0.0304,0.0307,0.0315,0.0314,0.0314,0.0306,0.0309,0.0301,0.0299,0.0281,0.0258,0.0223,0.0192,0.0158,0.0134,0.011,0.01,0.0109,0.0116,0.0074,0.0071,0.0068,0.0036,0.003,0.0109,0.0109,0.0109,0,0.0312,0.032,0.0314,0.0322,0.0325,0.0315,0.0323,0.0313,0.0297,0.0288,0.0287,0.0212,0.0187,0.0131,0.0126,0.011,0.0092,0.0127,0.0075,0.0072,0.0068,0.0036,0.0029,0.011,0.011,0.011,0.011,0,0.0326,0.0336,0.034,0.0348,0.0346,0.035,0.0341,0.0339,0.0332,0.0317,0.0273,0.0221,0.0179,0.0158,0.0137,0.0093,0.009,0.0081,0.0084,0.0066,0.0033,0.0025,0.0112,0.0111,0.0111,0.0111,0,0,0.0335,0.0349,0.0353,0.0365,0.0363,0.0364,0.0359,0.0347,0.0344,0.0313,0.0286,0.0222,0.02,0.017,0.013,0.0088,0.0047,0.0083,0.008,0.0063,-0.0034,-0.0026,-0.0033,0.0036,0.0035,0.0034,-0.0045,0,0.0351,0.0375,0.0372,0.0392,0.0405,0.0392,0.0395,0.038,0.0355,0.033,0.026,0.0233,0.0203,0.0186,0.0133,0.0068,0.0028,0.007,-0.0024,-0.0027,-0.0008,-0.0042,0.003,-0.0051,-0.0053,-0.0054,-0.0055,0,0.0368,0.0382,0.0412,0.0425,0.0431,0.0447,0.0441,0.0439,0.0394,0.0374,0.0315,0.027,0.0197,0.0179,0.0056,0.009,0.0036,-0.0018,-0.0022,-0.0027,-0.0033,-0.0032,-0.0069,-0.0068,-0.0067,-0.0066,-0.0065,0,0.0384,0.0406,0.0434,0.0441,0.0458,0.0475,0.0487,0.0464,0.0462,0.0412,0.0397,0.0296,0.0261,0.0161,0.0057,0.0065,-0.0081,-0.0085,-0.0135,-0.0135,-0.0126,-0.0122,-0.0167,-0.0167,-0.0167,-0.0166,-0.0166,0,0.0397,0.0419,0.0458,0.0476,0.0515,0.0521,0.0541,0.0538,0.0519,0.0516,0.044,0.0396,0.0262,0.016,0.0057,-0.0065,-0.0078,-0.0141,-0.0159,-0.0115,-0.0109,-0.0132,-0.0126,-0.0169,-0.0169,-0.0168,-0.0168,0,0.0407,0.043,0.0464,0.0507,0.0528,0.0563,0.0597,0.0612,0.0601,0.0585,0.0582,0.048,0.0358,0.0205,0.0039,-0.0042,-0.0173,-0.0209,-0.0151,-0.0163,-0.0199,-0.0192,-0.0273,-0.0274,-0.0274,-0.0275,-0.0275,0,0.0414,0.0438,0.0494,0.0529,0.0559,0.0606,0.0647,0.0657,0.0663,0.0628,0.0622,0.0519,0.043,0.0191,0.0035,-0.017,-0.0191,-0.0248,-0.0229,-0.0203,-0.0212,-0.0205,-0.0197,-0.0275,-0.0276,-0.0276,-0.0276,0,0.0426,0.0453,0.0481,0.0553,0.0613,0.0652,0.0706,0.071,0.0719,0.0713,0.0654,0.0535,0.0389,0.0197,0.0044,-0.0106,-0.0212,-0.0253,-0.0253,-0.0235,-0.0206,-0.0214,-0.0206,-0.0277,-0.0277,-0.0277,-0.0277,0,0.0435,0.0455,0.0504,0.0568,0.0628,0.0679,0.0701,0.072,0.0726,0.0702,0.0677,0.0529,0.0448,0.023,0.0074,-0.0064,-0.0092,-0.0122,-0.013,-0.013,-0.0066,-0.0007,-0.0038,0,0,0,0,0,0.0429,0.0458,0.052,0.0578,0.0636,0.0683,0.073,0.0746,0.075,0.0729,0.0707,0.0574,0.0362,0.0252,0.0117,0.0052,-0.013,-0.0111,-0.0172,-0.0285,-0.0283,-0.0232,0,0,0,0,0,0,0.0425,0.0469,0.0511,0.0574,0.0623,0.0691,0.0724,0.0745,0.0712,0.0705,0.0583,0.0557,0.0331,0.0446,0.0121,0.0078,0.0024,-0.0207,-0.0209,-0.0286,-0.0284,-0.0283,-0.023,0,0,0,0,0]}]]